E3980 Weather Reports


time (UTC)temp
F
wind
direction
speed
knots
gust
knots
rain 1hr
in
rain 24hr
in
rain mn
in
humidity
%
barometer
mb
20260906134409 74 211 0.9 3.5 0.00 0.52 0.49 90 975.9
20260906133904 73 234 0.9 3.5 0.00 0.52 0.49 92 976.0
20260906133358 73 243 0.9 3.5 0.00 0.52 0.49 93 976.0
20260906132852 71 215 1.7 4.3 0.00 0.52 0.49 93 976.0
20260906132346 71 222 1.7 4.3 0.00 0.52 0.49 94 976.0
20260906131840 71 168 0.9 3.5 0.00 0.52 0.49 94 976.0
20260906131334 70 219 0.9 3.5 0.00 0.52 0.49 95 976.0
20260906130322 69 233 1.7 3.5 0.00 0.52 0.49 95 976.1
20260906125816 69 245 1.7 3.5 0.00 0.52 0.49 95 976.1
20260906125310 69 211 1.7 3.5 0.00 0.52 0.49 95 976.2
20260906124804 69 227 0.9 3.5 0.00 0.52 0.49 95 976.3
20260906124258 68 202 0.9 3.5 0.00 0.52 0.49 95 976.4
20260906123753 68 233 0.9 2.6 0.00 0.52 0.49 95 976.4
20260906123246 68 254 1.7 4.3 0.00 0.52 0.49 95 976.4
20260906122741 68 202 1.7 4.3 0.00 0.52 0.49 95 976.4
20260906122234 68 232 0.9 2.6 0.00 0.52 0.49 95 976.3
20260906121230 68 236 0.9 3.5 0.00 0.52 0.49 95 976.1
20260906120728 68 197 0.9 3.5 0.00 0.52 0.49 95 976.0
20260906120227 68 150 0.9 2.6 0.00 0.52 0.49 95 975.9
20260906115728 68 171 0.9 2.6 0.00 0.52 0.49 95 975.8
20260906114727 67 241 0.9 2.6 0.00 0.52 0.49 95 975.8
20260906114225 67 245 0.9 2.6 0.00 0.52 0.49 95 975.7
20260906113724 67 202 0.0 1.7 0.00 0.52 0.49 95 975.7
20260906113225 67 306 0.0 0.9 0.00 0.52 0.49 95 975.7
20260906112722 67 306 0.0 0.9 0.00 0.52 0.49 95 975.6
20260906112219 67 306 0.0 0.9 0.00 0.52 0.49 95 975.5
20260906111721 67 306 0.0 0.9 0.00 0.52 0.49 95 975.6
20260906111220 67 306 0.0 0.0 0.00 0.52 0.49 95 975.6
20260906110722 67 306 0.0 0.0 0.00 0.52 0.49 95 975.6
20260906110217 68 306 0.0 0.0 0.00 0.52 0.49 95 975.5
20260906105717 68 306 0.0 0.0 0.00 0.52 0.49 95 975.5
20260906105216 68 306 0.0 0.0 0.00 0.52 0.49 95 975.5
20260906104716 68 306 0.0 0.9 0.00 0.52 0.49 95 975.5
20260906103716 68 306 0.0 1.7 0.00 0.52 0.49 95 975.5
20260906103217 68 313 0.0 2.6 0.00 0.52 0.49 95 975.4
20260906102717 68 313 0.9 2.6 0.00 0.52 0.49 95 975.5
20260906101213 68 320 1.7 5.2 0.00 0.52 0.49 94 975.5
20260906100713 68 320 2.6 5.2 0.00 0.52 0.49 94 975.5
20260906100217 68 313 2.6 5.2 0.00 0.52 0.49 94 975.5
20260906095712 68 318 2.6 5.2 0.00 0.52 0.49 95 975.5
20260906095212 68 357 1.7 5.2 0.00 0.52 0.49 95 975.4
20260906094711 68 325 1.7 5.2 0.00 0.52 0.49 94 975.3
20260906094212 68 326 0.0 4.3 0.00 0.52 0.49 94 975.2
20260906093208 68 252 1.7 4.3 0.00 0.52 0.49 94 975.0
20260906092708 68 223 1.7 4.3 0.00 0.52 0.49 94 974.9
20260906092209 68 217 1.7 3.5 0.00 0.52 0.49 94 974.9
20260906091208 68 226 1.7 3.5 0.01 0.52 0.49 94 974.9
20260906090206 68 209 1.7 4.3 0.03 0.52 0.49 94 974.9
20260906085705 68 243 1.7 4.3 0.04 0.52 0.49 94 975.0
20260906084707 68 191 0.9 3.5 0.05 0.52 0.49 94 975.0
20260906084206 68 257 1.7 4.3 0.05 0.52 0.49 94 975.0
20260906083707 68 157 1.7 4.3 0.05 0.52 0.49 94 974.9
20260906083206 68 209 1.7 4.3 0.05 0.52 0.49 94 975.0
20260906082703 68 176 1.7 3.5 0.05 0.52 0.49 94 974.9
20260906082201 68 225 0.9 3.5 0.05 0.52 0.49 94 975.0
20260906081703 68 262 0.0 6.1 0.06 0.52 0.49 94 975.3
20260906081157 69 72 1.7 6.1 0.05 0.51 0.48 94 975.1
20260906080651 69 229 2.6 6.1 0.04 0.50 0.47 94 974.9
20260906080145 69 145 2.6 6.1 0.07 0.49 0.46 94 975.1
20260906075639 69 171 2.6 5.2 0.16 0.48 0.45 94 975.0
20260906074627 69 265 0.0 1.7 0.43 0.47 0.44 94 975.7
20260906074121 69 343 0.0 0.9 0.44 0.47 0.44 94 976.0
20260906073109 69 103 0.9 2.6 0.44 0.47 0.44 93 976.1
20260906072603 69 168 0.9 2.6 0.44 0.47 0.44 93 976.2
20260906072057 69 221 0.9 2.6 0.44 0.47 0.44 93 976.5
20260906071552 69 213 0.0 1.7 0.43 0.46 0.43 93 976.8
20260906071045 70 164 0.9 1.7 0.43 0.46 0.43 92 977.0
20260906070539 70 152 0.9 2.6 0.43 0.46 0.43 91 977.3
20260906070033 71 322 1.7 8.7 0.35 0.38 0.37 89 977.6
20260906065527 72 318 3.5 10.4 0.26 0.29 0.26 87 977.7
20260906065021 74 313 3.5 10.4 0.02 0.05 0.05 82 977.7
20260906064515 75 320 6.1 14.8 0.01 0.04 0.01 79 977.3
20260906064009 75 349 7.0 14.8 0.00 0.03 0.00 81 977.2
20260906063511 75 309 3.5 13.9 0.00 0.03 0.00 83 976.6
20260906062957 75 335 0.0 2.6 0.00 0.03 0.00 85 975.9
20260906062451 75 256 0.0 0.9 0.00 0.03 0.00 85 975.7
20260906061945 75 256 0.0 1.7 0.00 0.03 0.00 85 975.7
20260906061440 75 226 0.0 2.6 0.00 0.03 0.00 86 975.7
20260906060934 75 227 0.0 2.6 0.00 0.03 0.00 86 975.7
20260906054909 76 246 1.7 7.8 0.00 0.03 0.00 84 975.9
20260906054403 76 261 2.6 9.6 0.00 0.03 0.00 85 975.9
20260906053857 76 315 2.6 9.6 0.00 0.03 0.00 87 975.8
20260906053351 75 318 1.7 7.0 0.00 0.03 0.00 89 975.9
20260906052846 75 342 1.7 5.2 0.00 0.03 0.00 89 975.9
20260906052338 75 263 1.7 5.2 0.00 0.03 0.00 90 976.0
20260906051838 75 315 1.7 5.2 0.00 0.03 0.00 91 975.8
20260906051323 74 307 1.7 9.6 0.00 0.03 0.00 93 975.7
20260906050311 71 353 0.9 6.1 0.00 0.03 0.00 94 975.5
20260906045806 71 323 0.9 2.6 0.00 0.03 0.03 94 975.3
20260906045300 71 244 0.9 2.6 0.00 0.03 0.03 94 975.0
20260906044754 71 237 0.9 2.6 0.00 0.03 0.03 94 975.1
20260906044248 71 237 1.7 2.6 0.00 0.03 0.03 94 975.1
20260906043749 71 233 0.9 2.6 0.00 0.03 0.03 94 975.1
20260906043247 71 230 0.9 3.5 0.00 0.03 0.03 94 975.4
20260906042747 71 221 0.9 3.5 0.00 0.03 0.03 94 975.4
20260906042247 71 223 0.9 2.6 0.00 0.03 0.03 94 975.5
20260906041747 71 235 0.9 2.6 0.00 0.03 0.03 94 975.5
20260906041247 71 231 1.7 2.6 0.00 0.03 0.03 93 975.5
20260906040746 71 222 0.9 2.6 0.00 0.03 0.03 93 975.4
20260906040246 71 231 0.9 2.6 0.00 0.03 0.03 93 975.5
20260906035243 71 179 1.7 4.3 0.00 0.03 0.03 93 975.6
20260906034746 72 204 1.7 4.3 0.00 0.03 0.03 93 975.6
20260906034241 72 226 1.7 5.2 0.00 0.03 0.03 93 975.7
20260906033742 71 169 1.7 5.2 0.00 0.03 0.03 93 975.7
20260906032741 71 223 1.7 4.3 0.00 0.03 0.03 93 975.7
20260906032241 71 205 1.7 4.3 0.00 0.03 0.03 93 975.7
20260906031742 71 192 1.7 3.5 0.00 0.03 0.03 93 975.6
20260906031243 71 195 1.7 3.5 0.00 0.03 0.03 93 975.5
20260906030739 71 235 1.7 4.3 0.00 0.03 0.03 93 975.4
20260906030237 72 254 2.6 4.3 0.00 0.03 0.03 93 975.4
20260906025739 72 207 2.6 6.1 0.00 0.03 0.03 93 975.4
20260906025237 72 214 2.6 6.1 0.00 0.03 0.03 93 975.4
20260906024738 72 228 1.7 3.5 0.00 0.03 0.03 93 975.3
20260906024237 72 211 1.7 3.5 0.00 0.03 0.03 93 975.1
20260906023739 72 231 1.7 3.5 0.00 0.03 0.03 93 975.2
20260906023239 72 233 1.7 3.5 0.00 0.03 0.03 93 975.1
20260906022739 72 228 0.9 3.5 0.00 0.03 0.03 93 975.0
20260906022232 72 230 0.9 2.6 0.00 0.03 0.03 93 975.0
20260906021725 72 216 0.9 2.6 0.00 0.03 0.03 93 974.9
20260906021219 72 218 0.9 3.5 0.00 0.03 0.03 93 974.9
20260906020714 72 230 0.9 3.5 0.00 0.03 0.03 93 974.9
20260906020207 72 240 0.9 2.6 0.00 0.03 0.03 93 974.9
20260906015702 72 235 0.9 2.6 0.00 0.03 0.03 93 974.8
20260906015156 72 229 0.9 1.7 0.00 0.03 0.03 93 974.7
20260906014650 72 227 0.0 1.7 0.00 0.03 0.03 93 974.6
20260906014151 72 222 0.0 0.9 0.00 0.03 0.03 92 974.6
20260906013647 73 215 0.0 0.9 0.00 0.03 0.03 92 974.6
20260906013147 73 212 0.0 1.7 0.00 0.03 0.03 92 974.5
20260906012649 73 184 0.0 1.7 0.00 0.03 0.03 92 974.6
20260906012149 73 158 0.0 0.9 0.00 0.03 0.03 92 974.5
20260906011644 73 158 0.0 0.9 0.00 0.03 0.03 91 974.6
20260906011143 73 158 0.0 0.0 0.00 0.03 0.03 91 974.6
20260906010642 73 158 0.0 0.0 0.00 0.03 0.03 90 974.4
20260906010142 74 158 0.0 0.0 0.00 0.03 0.03 90 974.3
20260906005639 74 158 0.0 0.0 0.00 0.03 0.03 90 974.5
20260906005139 74 158 0.0 2.6 0.00 0.03 0.03 90 974.4
20260906004639 74 158 0.9 2.6 0.00 0.03 0.03 89 974.4
20260906003636 74 317 0.0 1.7 0.00 0.03 0.03 90 974.6
20260906002633 74 251 0.9 2.6 0.00 0.03 0.03 89 974.3
20260906002130 75 235 0.9 2.6 0.00 0.03 0.03 89 974.2
20260906001631 75 188 0.9 1.7 0.00 0.03 0.03 88 974.3
20260906001126 75 256 0.0 2.6 0.00 0.03 0.03 88 974.1
20260906000624 75 204 0.9 2.6 0.00 0.03 0.03 88 974.1
20260906000125 76 165 0.9 2.6 0.00 0.03 0.03 87 974.1
20260905235619 76 313 0.0 0.9 0.00 0.03 0.03 86 974.1
20260905235114 77 270 0.0 0.9 0.01 0.03 0.03 86 974.0
20260905234607 77 271 0.0 2.6 0.02 0.03 0.03 85 974.1
20260905234101 77 226 0.9 2.6 0.03 0.03 0.03 85 974.3
20260905233556 77 225 0.9 3.5 0.03 0.03 0.03 85 974.4
20260905231532 76 176 3.5 6.1 0.03 0.03 0.03 86 974.8
20260905231026 76 142 3.5 6.1 0.03 0.03 0.03 86 975.4
20260905230522 76 143 2.6 6.1 0.03 0.03 0.03 87 975.9
20260905230014 76 169 2.6 6.1 0.03 0.03 0.03 86 975.8
20260905225508 76 299 3.5 7.8 0.03 0.03 0.03 84 975.3
20260905225001 78 350 4.3 11.3 0.02 0.02 0.02 79 975.4
20260905223950 86 29 7.0 15.6 0.00 0.00 0.00 63 974.2
20260905223444 90 351 6.1 17.4 0.00 0.00 0.00 58 974.1
20260905222937 96 335 2.6 17.4 0.00 0.00 0.00 48 974.0
20260905221925 98 322 1.7 5.2 0.00 0.00 0.00 45 973.5
20260905220407 97 318 0.9 4.3 0.00 0.00 0.00 43 973.4
20260905215902 97 329 1.7 5.2 0.00 0.00 0.00 46 973.5
20260905214849 97 347 2.6 7.0 0.00 0.00 0.00 46 973.8
20260905214343 97 330 2.6 7.0 0.00 0.00 0.00 45 973.9
20260905213837 97 298 1.7 5.2 0.00 0.00 0.00 47 973.9
20260905212825 97 323 2.6 7.0 0.00 0.00 0.00 48 973.9
20260905212319 96 293 2.6 7.8 0.00 0.00 0.00 46 973.9
20260905211814 96 319 2.6 7.8 0.00 0.00 0.00 48 974.0
20260905205749 96 21 2.6 6.1 0.00 0.00 0.00 47 973.9
20260905204738 96 308 3.5 7.0 0.00 0.00 0.00 47 974.0
20260905203725 96 296 3.5 9.6 0.00 0.00 0.00 47 974.0
20260905203219 97 327 3.5 7.8 0.00 0.00 0.00 48 974.2
20260905202713 97 317 2.6 7.8 0.00 0.00 0.00 49 974.2
20260905202209 97 282 1.7 7.0 0.00 0.00 0.00 46 974.3
20260905201708 97 313 2.6 10.4 0.00 0.00 0.00 48 974.4
20260905201209 97 335 2.6 10.4 0.00 0.00 0.00 49 974.5
20260905200709 97 358 1.7 7.0 0.00 0.00 0.00 46 974.5
20260905200208 96 294 2.6 7.0 0.00 0.00 0.00 48 974.5
20260905195709 96 333 1.7 6.1 0.00 0.00 0.00 48 974.7
20260905195208 96 342 1.7 7.0 0.00 0.00 0.00 48 974.7
20260905194706 96 309 2.6 7.0 0.00 0.00 0.00 49 974.8
20260905194207 96 357 3.5 9.6 0.00 0.00 0.00 49 974.8
20260905193207 96 327 3.5 8.7 0.00 0.00 0.00 51 974.9
20260905192708 95 334 2.6 8.7 0.00 0.00 0.00 52 974.9
20260905192208 95 326 2.6 8.7 0.00 0.00 0.00 51 974.9
20260905191708 95 330 2.6 7.0 0.00 0.00 0.00 51 975.0
20260905191208 96 315 3.5 9.6 0.00 0.00 0.00 50 975.0
20260905190708 96 312 4.3 9.6 0.00 0.00 0.00 49 975.1
20260905190202 96 324 3.5 10.4 0.00 0.00 0.00 49 975.2
20260905185702 96 336 3.5 10.4 0.00 0.00 0.00 48 975.3
20260905185204 96 318 3.5 8.7 0.00 0.00 0.00 48 975.4
20260905184704 96 325 2.6 8.7 0.00 0.00 0.00 50 975.4
20260905184202 96 339 2.6 7.8 0.00 0.00 0.00 49 975.5
20260905183702 95 311 3.5 8.7 0.00 0.00 0.00 53 975.6
20260905183203 94 311 4.3 8.7 0.00 0.00 0.00 51 975.7
20260905182704 94 315 5.2 12.2 0.00 0.00 0.00 51 975.8
20260905182159 95 291 4.3 12.2 0.00 0.00 0.00 51 975.8
20260905181659 95 305 2.6 8.7 0.00 0.00 0.00 51 975.9
20260905181158 96 319 1.7 7.0 0.00 0.00 0.00 49 976.0
20260905175700 95 271 2.6 7.8 0.00 0.00 0.00 53 976.1
20260905175200 94 189 2.6 8.7 0.00 0.00 0.00 53 976.1
20260905174701 94 310 2.6 8.7 0.00 0.00 0.00 53 976.2
20260905173152 94 299 2.6 7.0 0.00 0.00 0.00 54 976.2
20260905172653 94 294 3.5 8.7 0.00 0.00 0.00 53 976.2
20260905172153 93 288 4.3 8.7 0.00 0.00 0.00 56 976.3
20260905171654 93 333 2.6 7.0 0.00 0.00 0.00 55 976.3
20260905171152 93 327 3.5 7.0 0.00 0.00 0.00 56 976.3
20260905170651 93 326 2.6 7.0 0.00 0.00 0.00 56 976.4
20260905170150 93 314 0.9 5.2 0.00 0.00 0.00 55 976.5
20260905165650 93 346 2.6 8.7 0.00 0.00 0.00 56 976.5
20260905165152 92 304 2.6 9.6 0.00 0.00 0.00 56 976.7
20260905164650 92 337 2.6 9.6 0.00 0.00 0.00 55 976.7
20260905164152 92 280 4.3 9.6 0.00 0.00 0.00 56 976.8
20260905163652 92 324 4.3 9.6 0.00 0.00 0.00 56 976.8
20260905163146 92 312 4.3 9.6 0.00 0.00 0.00 56 977.0
20260905162640 92 327 3.5 8.7 0.00 0.00 0.00 59 977.0
20260905162134 92 301 2.6 8.7 0.00 0.00 0.00 58 977.1
20260905161632 92 300 1.7 7.0 0.00 0.00 0.00 57 977.1
20260905160632 92 334 0.9 4.3 0.00 0.00 0.00 58 977.3
20260905160133 91 330 1.7 7.0 0.00 0.00 0.00 60 977.3
20260905155634 91 325 1.7 7.0 0.00 0.00 0.00 60 977.3
20260905155132 91 319 1.7 4.3 0.00 0.00 0.00 59 977.3
20260905154632 91 329 1.7 5.2 0.00 0.00 0.00 61 977.3
20260905154132 91 345 0.9 5.2 0.00 0.00 0.00 63 977.3
20260905153630 91 20 0.0 2.6 0.00 0.00 0.00 63 977.3
20260905153132 90 347 1.7 7.0 0.00 0.00 0.00 63 977.4
20260905152631 89 341 2.6 7.8 0.00 0.00 0.00 64 977.3
20260905152128 89 299 2.6 7.8 0.00 0.00 0.00 64 977.2
20260905151628 89 316 1.7 4.3 0.00 0.00 0.00 65 977.3
20260905151128 89 325 1.7 4.3 0.00 0.00 0.00 67 977.4
20260905150630 88 340 1.7 4.3 0.00 0.00 0.00 66 977.3
20260905150128 88 288 1.7 4.3 0.00 0.00 0.00 66 977.3
20260905145123 87 325 0.9 4.3 0.00 0.00 0.00 70 977.4
20260905144111 87 300 0.9 2.6 0.00 0.00 0.00 70 977.5
20260905143605 86 351 0.0 0.9 0.00 0.00 0.00 72 977.5
20260905143058 85 346 0.0 0.9 0.00 0.00 0.00 72 977.5
20260905142047 85 259 0.0 0.0 0.00 0.00 0.00 77 977.7
20260905141541 84 259 0.0 0.9 0.00 0.00 0.00 79 977.6
20260905141035 83 259 0.0 0.9 0.00 0.00 0.00 81 977.6
20260905140529 83 237 0.0 0.9 0.00 0.00 0.00 83 977.8
20260905140023 82 226 0.0 0.9 0.00 0.00 0.00 86 977.7
20260905135517 81 226 0.0 0.9 0.00 0.00 0.00 89 977.7
20260905135011 79 226 0.0 0.9 0.00 0.00 0.00 93 977.7